Regional Weather Roundup
Issued by NWS Kansas City/Pleasant Hill, MO

Home | Current Version | Previous Version | Text Only | Print | Product List | Glossary On
Versions: 1 2 3 4 5 6 7 8 9 10 11 12 13 14 15 16 17 18 19 20 21 22 23 24 25 26 27 28 29 30 31 32 33 34 35 36 37 38 39 40 41 42 43 44 45 46 47 48 49 50
000
ASUS43 KEAX 301111
RWREAX

WEATHER ROUNDUP FOR EASTERN KANSAS AND NORTHWEST MISSOURI
NATIONAL WEATHER SERVICE KANSAS CITY/PLEASANT HILL MO
600 AM CDT SAT MAY 30 2015

KSZ040-057-103>105-MOZ028-029-037-043-301200-
...KANSAS CITY METROPOLITAN AREA...

CITY           SKY/WX    TMP DP  RH WIND       PRES   REMARKS
K.C. INTL      CLOUDY    57  56  96 N13G22    30.01R
K.C. DOWNTOWN  CLOUDY    62  58  86 N10       29.99R
LEES SUMMIT    CLOUDY    64  62  93 N14       29.98S
OLATHE - IXD   LGT RAIN  59  58  96 NW17      30.02R FOG
OLATHE - OJC   LGT RAIN  60  59  96 N13       29.99R FOG
LAWRENCE       CLOUDY    58  55  90 N22G28    30.03R

$$

MOZ001>008-011>017-020>025-030>033-038>040-044>046-053-054-301200-
...NORTHERN AND CENTRAL MISSOURI...

CITY           SKY/WX    TMP DP  RH WIND       PRES   REMARKS
ST. JOSEPH     CLOUDY    56  54  93 N15       30.04R
MOSBY          CLOUDY    61  59  94 NW9       30.00R FOG
WARRENSBURG    FOG       61  61 100 CALM      29.96S VSB 1/2
WHITEMAN AFB   FOG       64  64 100 NW6       29.95S VSB 3/4
CLINTON        CLOUDY    64  64 100 NW3       29.97R FOG
SEDALIA        FOG       66  64  93 NW5       29.97R VSB 3/4
WARSAW         CLOUDY    64  64 100 CALM      29.96S FOG
CHILLICOTHE      N/A     65  62  90 N10       29.99R
MOBERLY        CLOUDY    64  61  88 CALM      29.97S FOG
KIRKSVILLE     CLOUDY    65  64  97 CALM      29.97S

$$

MOZ041-047>049-056>058-063>065-088>090-097-301200-
...EASTERN AND SOUTHERN MISSOURI...

CITY           SKY/WX    TMP DP  RH WIND       PRES   REMARKS
ST. LOUIS INTL CLOUDY    69  66  90 CALM      29.95S
SPIRIT OF STL  LGT RAIN  68  67  96 CALM      29.94S
COLUMBIA       LGT RAIN  66  65  96 E3        29.95S
JEFFERSON CITY LGT RAIN  67  65  93 CALM      29.94S
ROLLA          LGT RAIN  64  63  96 CALM      29.93F
LEBANON        RAIN      64  63  94 CALM      29.97R
OSAGE BEACH    CLOUDY    64  63  94 CALM      29.95R
SPRINGFIELD    CLOUDY    65  63  93 CALM      29.95S
BRANSON        CLOUDY    64  64 100 CALM      29.97R
NEVADA         CLOUDY    63  63 100 CALM      29.98R
JOPLIN         FOG       64  63  96 VRB5      29.99R VSB 1/2
WEST PLAINS    LGT RAIN  65  62  90 N6        29.96S

$$

IAZ060-094-KSZ022-034>040-054-083-096-NEZ052-066-093-301200-
...KANSAS...SOUTHEAST NEBRASKA AND IOWA...

CITY           SKY/WX    TMP DP  RH WIND       PRES   REMARKS
TOPEKA         CLOUDY    56  54  93 NW10      30.06R
MANHATTAN      CLOUDY    54  51  90 VRB6      30.10R
EMPORIA        CLOUDY    56  54  93 N13G22    30.06R
CHANUTE        CLOUDY    62  61  96 NW15G22   30.02R FOG
WICHITA        CLOUDY    57  50  77 N17G25    30.13R
OMAHA          LGT RAIN  50  49  96 N14       30.11F FOG
LINCOLN        CLOUDY    52  44  74 N15       30.14S
FALLS CITY     CLOUDY    53  50  89 N13       30.06S
LAMONI         CLOUDY    58  54  86 N14G21    30.02R
DES MOINES     DRIZZLE   57  53  86 N12       30.03R FOG

$$




USA.gov is the U.S. government's official web portal to all federal, state and local government web resources and services.